Time,TemperatureF,DewpointF,PressureIn,WindDirection,WindDirectionDegrees,WindSpeedMPH,WindSpeedGustMPH,Humidity,HourlyPrecipIn,Conditions,Clouds,dailyrainin,SoftwareType,DateUTC
2013-08-23 00:01:00,69.7,64.7,30.11,East,86,2.0,4.0,84,0.00,,,0.00,WUHU216DAVISVP2,2013-08-23 05:01:00,
2013-08-23 00:06:00,69.6,64.6,30.10,East,94,2.0,5.0,84,0.00,,,0.00,WUHU216DAVISVP2,2013-08-23 05:06:00,
2013-08-23 00:11:00,69.5,64.5,30.10,East,84,2.0,5.0,84,0.00,,,0.00,WUHU216DAVISVP2,2013-08-23 05:11:00,
2013-08-23 00:16:00,69.4,64.7,30.10,East,81,1.0,5.0,85,0.00,,,0.00,WUHU216DAVISVP2,2013-08-23 05:16:00,
2013-08-23 00:21:00,69.3,64.6,30.10,ESE,107,1.0,5.0,85,0.00,,,0.00,WUHU216DAVISVP2,2013-08-23 05:21:00,
2013-08-23 00:26:00,69.1,64.4,30.10,ESE,105,1.0,4.0,85,0.00,,,0.00,WUHU216DAVISVP2,2013-08-23 05:26:00,
2013-08-23 00:31:00,69.0,64.3,30.10,ENE,72,2.0,4.0,85,0.00,,,0.00,WUHU216DAVISVP2,2013-08-23 05:31:00,
2013-08-23 00:36:00,68.9,64.2,30.10,East,82,1.0,3.0,85,0.00,,,0.00,WUHU216DAVISVP2,2013-08-23 05:36:00,
2013-08-23 00:41:00,68.9,64.2,30.10,NE,39,3.0,3.0,85,0.00,,,0.00,WUHU216DAVISVP2,2013-08-23 05:41:00,
2013-08-23 00:46:00,68.8,64.1,30.10,ENE,72,0.0,3.0,85,0.00,,,0.00,WUHU216DAVISVP2,2013-08-23 05:46:00,
2013-08-23 00:51:00,68.7,64.0,30.10,East,85,2.0,5.0,85,0.00,,,0.00,WUHU216DAVISVP2,2013-08-23 05:51:00,
2013-08-23 00:56:00,68.5,63.8,30.10,East,84,3.0,8.0,85,0.00,,,0.00,WUHU216DAVISVP2,2013-08-23 05:56:00,
2013-08-23 01:01:00,68.4,64.1,30.10,East,86,1.0,8.0,86,0.00,,,0.00,WUHU216DAVISVP2,2013-08-23 06:01:00,
2013-08-23 01:06:00,68.3,64.0,30.10,East,94,4.0,8.0,86,0.00,,,0.00,WUHU216DAVISVP2,2013-08-23 06:06:00,
2013-08-23 01:11:00,68.3,63.9,30.10,East,87,1.0,8.0,86,0.00,,,0.00,WUHU216DAVISVP2,2013-08-23 06:11:00,
2013-08-23 01:16:00,68.3,64.0,30.10,East,83,2.0,4.0,86,0.00,,,0.00,WUHU216DAVISVP2,2013-08-23 06:16:00,
2013-08-23 01:21:00,68.3,64.0,30.10,East,80,1.0,4.0,86,0.00,,,0.00,WUHU216DAVISVP2,2013-08-23 06:21:00,
2013-08-23 01:26:00,68.3,64.0,30.10,ENE,60,1.0,3.0,86,0.00,,,0.00,WUHU216DAVISVP2,2013-08-23 06:26:00,
2013-08-23 01:31:00,68.2,63.9,30.11,SE,146,0.0,3.0,86,0.00,,,0.00,WUHU216DAVISVP2,2013-08-23 06:31:00,
2013-08-23 01:36:00,68.1,63.8,30.11,SE,133,1.0,3.0,86,0.00,,,0.00,WUHU216DAVISVP2,2013-08-23 06:36:00,
2013-08-23 01:41:00,68.0,63.7,30.11,East,83,0.0,3.0,86,0.00,,,0.00,WUHU216DAVISVP2,2013-08-23 06:41:00,
2013-08-23 01:46:00,67.9,63.6,30.10,East,89,1.0,1.0,86,0.00,,,0.00,WUHU216DAVISVP2,2013-08-23 06:46:00,
2013-08-23 01:51:00,67.8,63.5,30.11,ENE,77,1.0,1.0,86,0.00,,,0.00,WUHU216DAVISVP2,2013-08-23 06:51:00,
2013-08-23 01:56:00,67.9,63.6,30.11,ESE,116,1.0,1.0,86,0.00,,,0.00,WUHU216DAVISVP2,2013-08-23 06:56:00,
2013-08-23 02:01:00,67.9,63.6,30.11,East,96,1.0,1.0,86,0.00,,,0.00,WUHU216DAVISVP2,2013-08-23 07:01:00,
2013-08-23 02:06:00,67.9,63.6,30.11,SSE,152,1.0,1.0,86,0.00,,,0.00,WUHU216DAVISVP2,2013-08-23 07:06:00,
2013-08-23 02:11:00,67.9,63.6,30.11,SSE,153,1.0,1.0,86,0.00,,,0.00,WUHU216DAVISVP2,2013-08-23 07:11:00,
2013-08-23 02:16:00,67.9,63.9,30.11,ENE,77,2.0,4.0,87,0.00,,,0.00,WUHU216DAVISVP2,2013-08-23 07:16:00,
2013-08-23 02:21:00,67.8,63.8,30.11,East,98,1.0,4.0,87,0.00,,,0.00,WUHU216DAVISVP2,2013-08-23 07:21:00,
2013-08-23 02:26:00,67.7,63.7,30.10,ESE,122,1.0,4.0,87,0.00,,,0.00,WUHU216DAVISVP2,2013-08-23 07:26:00,
2013-08-23 02:31:00,67.6,63.6,30.10,East,87,2.0,4.0,87,0.00,,,0.00,WUHU216DAVISVP2,2013-08-23 07:31:00,
2013-08-23 02:36:00,67.5,63.5,30.10,ENE,78,1.0,3.0,87,0.00,,,0.00,WUHU216DAVISVP2,2013-08-23 07:36:00,
2013-08-23 02:41:00,67.4,63.4,30.10,ESE,105,2.0,4.0,87,0.00,,,0.00,WUHU216DAVISVP2,2013-08-23 07:41:00,
2013-08-23 02:46:00,67.2,63.5,30.10,SE,129,1.0,4.0,88,0.00,,,0.00,WUHU216DAVISVP2,2013-08-23 07:46:00,
2013-08-23 02:51:00,67.0,63.3,30.10,East,98,1.0,4.0,88,0.00,,,0.00,WUHU216DAVISVP2,2013-08-23 07:51:00,
2013-08-23 02:56:00,66.9,63.2,30.10,ESE,107,1.0,4.0,88,0.00,,,0.00,WUHU216DAVISVP2,2013-08-23 07:56:00,
2013-08-23 03:01:00,66.7,63.3,30.10,East,96,1.0,3.0,89,0.00,,,0.00,WUHU216DAVISVP2,2013-08-23 08:01:00,
2013-08-23 03:06:00,66.6,63.2,30.10,SE,136,2.0,3.0,89,0.00,,,0.00,WUHU216DAVISVP2,2013-08-23 08:06:00,
2013-08-23 03:11:00,66.4,63.0,30.10,East,85,1.0,3.0,89,0.00,,,0.00,WUHU216DAVISVP2,2013-08-23 08:11:00,
2013-08-23 03:16:00,66.3,63.0,30.10,ESE,122,1.0,3.0,89,0.00,,,0.00,WUHU216DAVISVP2,2013-08-23 08:16:00,
2013-08-23 03:21:00,66.2,63.2,30.10,ESE,102,1.0,3.0,90,0.00,,,0.00,WUHU216DAVISVP2,2013-08-23 08:21:00,
2013-08-23 03:26:00,66.1,63.1,30.10,East,100,1.0,3.0,90,0.00,,,0.00,WUHU216DAVISVP2,2013-08-23 08:26:00,
2013-08-23 03:31:00,66.0,63.0,30.10,SE,145,1.0,3.0,90,0.00,,,0.00,WUHU216DAVISVP2,2013-08-23 08:31:00,
2013-08-23 03:36:00,65.9,63.2,30.10,SE,129,0.0,3.0,91,0.00,,,0.00,WUHU216DAVISVP2,2013-08-23 08:36:00,
2013-08-23 03:41:00,65.8,63.1,30.10,SE,129,1.0,3.0,91,0.00,,,0.00,WUHU216DAVISVP2,2013-08-23 08:41:00,
2013-08-23 03:46:00,65.7,63.0,30.10,SE,129,1.0,1.0,91,0.00,,,0.00,WUHU216DAVISVP2,2013-08-23 08:46:00,
2013-08-23 03:51:00,65.7,63.3,30.10,ESE,116,1.0,1.0,92,0.00,,,0.00,WUHU216DAVISVP2,2013-08-23 08:51:00,
2013-08-23 03:56:00,65.7,63.3,30.10,ESE,110,2.0,3.0,92,0.00,,,0.00,WUHU216DAVISVP2,2013-08-23 08:56:00,
2013-08-23 04:01:00,65.7,63.3,30.10,SE,130,1.0,3.0,92,0.00,,,0.00,WUHU216DAVISVP2,2013-08-23 09:01:00,
2013-08-23 04:06:00,65.7,63.6,30.10,SE,124,0.0,3.0,93,0.00,,,0.00,WUHU216DAVISVP2,2013-08-23 09:06:00,
2013-08-23 04:11:00,65.8,63.7,30.10,SE,124,1.0,3.0,93,0.00,,,0.00,WUHU216DAVISVP2,2013-08-23 09:11:00,
2013-08-23 04:16:00,65.8,63.7,30.10,East,94,2.0,3.0,93,0.00,,,0.00,WUHU216DAVISVP2,2013-08-23 09:16:00,
2013-08-23 04:21:00,65.8,63.7,30.10,ESE,103,1.0,3.0,93,0.00,,,0.00,WUHU216DAVISVP2,2013-08-23 09:21:00,
2013-08-23 04:26:00,65.8,63.7,30.10,ESE,102,1.0,3.0,93,0.00,,,0.00,WUHU216DAVISVP2,2013-08-23 09:26:00,
2013-08-23 04:31:00,65.8,63.7,30.10,ESE,118,1.0,3.0,93,0.00,,,0.00,WUHU216DAVISVP2,2013-08-23 09:31:00,
2013-08-23 04:36:00,65.8,63.7,30.09,East,98,1.0,3.0,93,0.00,,,0.00,WUHU216DAVISVP2,2013-08-23 09:36:00,
2013-08-23 04:41:00,65.7,63.6,30.09,ESE,109,1.0,3.0,93,0.00,,,0.00,WUHU216DAVISVP2,2013-08-23 09:41:00,
2013-08-23 04:46:00,65.7,63.6,30.09,ESE,118,1.0,3.0,93,0.00,,,0.00,WUHU216DAVISVP2,2013-08-23 09:46:00,
2013-08-23 04:51:00,65.7,63.9,30.09,East,97,1.0,3.0,94,0.00,,,0.00,WUHU216DAVISVP2,2013-08-23 09:51:00,
2013-08-23 04:56:00,65.6,63.8,30.09,East,101,0.0,3.0,94,0.00,,,0.00,WUHU216DAVISVP2,2013-08-23 09:56:00,
2013-08-23 05:01:00,65.6,63.8,30.09,ENE,77,2.0,3.0,94,0.00,,,0.00,WUHU216DAVISVP2,2013-08-23 10:01:00,
2013-08-23 05:06:00,65.5,63.7,30.09,East,95,1.0,3.0,94,0.00,,,0.00,WUHU216DAVISVP2,2013-08-23 10:06:00,
2013-08-23 05:11:00,65.6,63.8,30.09,ESE,109,1.0,3.0,94,0.00,,,0.00,WUHU216DAVISVP2,2013-08-23 10:11:00,
2013-08-23 05:15:00,65.6,63.8,30.09,East,99,1.0,3.0,94,0.00,,,0.00,WUHU216DAVISVP2,2013-08-23 10:15:00,
2013-08-23 05:20:00,65.6,63.8,30.09,ESE,105,1.0,1.0,94,0.00,,,0.00,WUHU216DAVISVP2,2013-08-23 10:20:00,
2013-08-23 05:25:00,65.6,63.8,30.09,East,91,1.0,1.0,94,0.00,,,0.00,WUHU216DAVISVP2,2013-08-23 10:25:00,
2013-08-23 05:30:00,65.7,63.9,30.08,East,82,2.0,3.0,94,0.00,,,0.00,WUHU216DAVISVP2,2013-08-23 10:30:00,
2013-08-23 05:35:00,65.7,63.9,30.08,East,97,1.0,3.0,94,0.00,,,0.00,WUHU216DAVISVP2,2013-08-23 10:35:00,
2013-08-23 05:40:00,65.7,64.2,30.08,East,83,2.0,4.0,95,0.00,,,0.00,WUHU216DAVISVP2,2013-08-23 10:40:00,
2013-08-23 05:45:00,65.7,64.2,30.08,ENE,60,1.0,4.0,95,0.00,,,0.00,WUHU216DAVISVP2,2013-08-23 10:45:00,
2013-08-23 05:50:00,65.8,64.3,30.08,East,97,1.0,4.0,95,0.00,,,0.00,WUHU216DAVISVP2,2013-08-23 10:50:00,
2013-08-23 05:55:00,65.8,64.3,30.08,East,93,1.0,4.0,95,0.00,,,0.00,WUHU216DAVISVP2,2013-08-23 10:55:00,
2013-08-23 06:00:00,65.8,64.3,30.08,ENE,77,1.0,3.0,95,0.00,,,0.00,WUHU216DAVISVP2,2013-08-23 11:00:00,
2013-08-23 06:05:00,65.8,64.0,30.08,ENE,74,2.0,3.0,94,0.00,,,0.00,WUHU216DAVISVP2,2013-08-23 11:05:00,
2013-08-23 06:10:00,65.6,63.8,30.08,East,79,1.0,3.0,94,0.00,,,0.00,WUHU216DAVISVP2,2013-08-23 11:10:00,
2013-08-23 06:15:00,65.2,63.4,30.08,East,90,1.0,3.0,94,0.00,,,0.00,WUHU216DAVISVP2,2013-08-23 11:15:00,
2013-08-23 06:20:00,65.1,63.3,30.08,ENE,74,1.0,3.0,94,0.00,,,0.00,WUHU216DAVISVP2,2013-08-23 11:20:00,
2013-08-23 06:25:00,65.0,63.2,30.08,East,80,2.0,4.0,94,0.00,,,0.00,WUHU216DAVISVP2,2013-08-23 11:25:00,
2013-08-23 06:30:00,65.0,63.5,30.08,East,101,1.0,4.0,95,0.00,,,0.00,WUHU216DAVISVP2,2013-08-23 11:30:00,
2013-08-23 06:35:00,65.1,63.6,30.08,ENE,72,1.0,4.0,95,0.00,,,0.00,WUHU216DAVISVP2,2013-08-23 11:35:00,
2013-08-23 06:40:00,65.2,63.7,30.08,East,89,1.0,4.0,95,0.00,,,0.00,WUHU216DAVISVP2,2013-08-23 11:40:00,
2013-08-23 06:45:00,65.4,63.9,30.08,East,79,2.0,3.0,95,0.00,,,0.00,WUHU216DAVISVP2,2013-08-23 11:45:00,
2013-08-23 06:50:00,65.5,64.0,30.07,East,84,1.0,4.0,95,0.00,,,0.00,WUHU216DAVISVP2,2013-08-23 11:50:00,
2013-08-23 06:55:00,65.6,64.1,30.07,East,79,2.0,4.0,95,0.00,,,0.00,WUHU216DAVISVP2,2013-08-23 11:55:00,
2013-08-23 07:00:00,65.7,63.9,30.08,ESE,103,1.0,4.0,94,0.00,,,0.00,WUHU216DAVISVP2,2013-08-23 12:00:00,
2013-08-23 07:05:00,65.7,63.9,30.08,East,87,2.0,4.0,94,0.00,,,0.00,WUHU216DAVISVP2,2013-08-23 12:05:00,
2013-08-23 07:10:00,65.8,64.0,30.08,East,101,1.0,4.0,94,0.00,,,0.00,WUHU216DAVISVP2,2013-08-23 12:10:00,
2013-08-23 07:15:00,65.8,64.0,30.08,ESE,109,1.0,3.0,94,0.00,,,0.00,WUHU216DAVISVP2,2013-08-23 12:15:00,
2013-08-23 07:20:00,65.9,64.1,30.08,SSE,159,1.0,3.0,94,0.00,,,0.00,WUHU216DAVISVP2,2013-08-23 12:20:00,
2013-08-23 07:25:00,66.0,64.2,30.08,East,81,1.0,3.0,94,0.00,,,0.00,WUHU216DAVISVP2,2013-08-23 12:25:00,
2013-08-23 07:30:00,66.4,64.6,30.08,East,97,2.0,7.0,94,0.00,,,0.00,WUHU216DAVISVP2,2013-08-23 12:30:00,
2013-08-23 07:35:00,66.7,64.6,30.08,ESE,103,2.0,7.0,93,0.00,,,0.00,WUHU216DAVISVP2,2013-08-23 12:35:00,
2013-08-23 07:40:00,67.1,65.0,30.08,East,93,2.0,7.0,93,0.00,,,0.00,WUHU216DAVISVP2,2013-08-23 12:40:00,
2013-08-23 07:45:00,67.3,64.9,30.08,East,93,2.0,7.0,92,0.00,,,0.00,WUHU216DAVISVP2,2013-08-23 12:45:00,
2013-08-23 07:50:00,67.6,65.2,30.08,East,100,2.0,7.0,92,0.00,,,0.00,WUHU216DAVISVP2,2013-08-23 12:50:00,
2013-08-23 07:55:00,67.9,65.5,30.08,East,84,3.0,5.0,92,0.00,,,0.00,WUHU216DAVISVP2,2013-08-23 12:55:00,
2013-08-23 08:00:00,68.0,65.6,30.08,East,87,2.0,5.0,92,0.00,,,0.00,WUHU216DAVISVP2,2013-08-23 13:00:00,
2013-08-23 08:05:00,68.1,65.3,30.08,ESE,120,3.0,4.0,91,0.00,,,0.00,WUHU216DAVISVP2,2013-08-23 13:05:00,
2013-08-23 08:10:00,68.2,65.4,30.08,ESE,104,2.0,7.0,91,0.00,,,0.00,WUHU216DAVISVP2,2013-08-23 13:10:00,
2013-08-23 08:15:00,68.4,65.6,30.08,East,81,3.0,7.0,91,0.00,,,0.00,WUHU216DAVISVP2,2013-08-23 13:15:00,
2013-08-23 08:20:00,68.7,65.9,30.08,East,86,3.0,7.0,91,0.00,,,0.00,WUHU216DAVISVP2,2013-08-23 13:20:00,
2013-08-23 08:25:00,68.8,66.0,30.08,East,84,3.0,7.0,91,0.00,,,0.00,WUHU216DAVISVP2,2013-08-23 13:25:00,
2013-08-23 08:30:00,69.2,66.4,30.08,East,84,3.0,5.0,91,0.00,,,0.00,WUHU216DAVISVP2,2013-08-23 13:30:00,
2013-08-23 08:35:00,69.6,66.5,30.08,East,101,1.0,5.0,90,0.00,,,0.00,WUHU216DAVISVP2,2013-08-23 13:35:00,
2013-08-23 08:40:00,70.1,67.0,30.08,ESE,111,2.0,5.0,90,0.00,,,0.00,WUHU216DAVISVP2,2013-08-23 13:40:00,
2013-08-23 08:45:00,70.7,67.3,30.08,ENE,72,4.0,5.0,89,0.00,,,0.00,WUHU216DAVISVP2,2013-08-23 13:45:00,
2013-08-23 08:50:00,71.1,67.4,30.08,East,99,2.0,4.0,88,0.00,,,0.00,WUHU216DAVISVP2,2013-08-23 13:50:00,
2013-08-23 08:55:00,71.3,67.6,30.08,East,84,2.0,4.0,88,0.00,,,0.00,WUHU216DAVISVP2,2013-08-23 13:55:00,
2013-08-23 09:00:00,71.6,67.9,30.08,East,95,2.0,5.0,88,0.00,,,0.00,WUHU216DAVISVP2,2013-08-23 14:00:00,
2013-08-23 09:05:00,72.1,68.4,30.08,ESE,105,2.0,5.0,88,0.00,,,0.00,WUHU216DAVISVP2,2013-08-23 14:05:00,
2013-08-23 09:10:00,72.5,68.1,30.08,ESE,110,2.0,5.0,86,0.00,,,0.00,WUHU216DAVISVP2,2013-08-23 14:10:00,
2013-08-23 09:15:00,72.8,68.1,30.08,ENE,63,3.0,5.0,85,0.00,,,0.00,WUHU216DAVISVP2,2013-08-23 14:15:00,
2013-08-23 09:20:00,72.9,68.2,30.08,ESE,106,2.0,5.0,85,0.00,,,0.00,WUHU216DAVISVP2,2013-08-23 14:20:00,
2013-08-23 09:25:00,73.0,68.3,30.08,East,90,2.0,5.0,85,0.00,,,0.00,WUHU216DAVISVP2,2013-08-23 14:25:00,
2013-08-23 09:30:00,73.1,68.0,30.08,East,90,2.0,5.0,84,0.00,,,0.00,WUHU216DAVISVP2,2013-08-23 14:30:00,
2013-08-23 09:35:00,73.3,68.2,30.08,East,86,1.0,5.0,84,0.00,,,0.00,WUHU216DAVISVP2,2013-08-23 14:35:00,
2013-08-23 09:40:00,73.7,68.3,30.08,ESE,115,2.0,5.0,83,0.00,,,0.00,WUHU216DAVISVP2,2013-08-23 14:40:00,
2013-08-23 09:45:00,73.9,68.5,30.07,East,94,4.0,7.0,83,0.00,,,0.00,WUHU216DAVISVP2,2013-08-23 14:45:00,
2013-08-23 09:50:00,74.1,68.3,30.07,East,94,3.0,7.0,82,0.00,,,0.00,WUHU216DAVISVP2,2013-08-23 14:50:00,
2013-08-23 09:55:00,74.5,68.7,30.07,NE,51,3.0,7.0,82,0.00,,,0.00,WUHU216DAVISVP2,2013-08-23 14:55:00,
2013-08-23 10:00:00,74.9,68.8,30.07,SE,127,3.0,7.0,81,0.00,,,0.00,WUHU216DAVISVP2,2013-08-23 15:00:00,
2013-08-23 10:05:00,74.7,68.6,30.07,ESE,109,2.0,8.0,81,0.00,,,0.00,WUHU216DAVISVP2,2013-08-23 15:05:00,
2013-08-23 10:10:00,75.2,69.1,30.07,ESE,107,2.0,8.0,81,0.00,,,0.00,WUHU216DAVISVP2,2013-08-23 15:10:00,
2013-08-23 10:15:00,75.3,69.2,30.07,East,82,4.0,8.0,81,0.00,,,0.00,WUHU216DAVISVP2,2013-08-23 15:15:00,
2013-08-23 10:20:00,75.7,69.5,30.07,East,99,3.0,7.0,81,0.00,,,0.00,WUHU216DAVISVP2,2013-08-23 15:20:00,
2013-08-23 10:25:00,75.9,69.7,30.07,SSE,153,1.0,7.0,81,0.00,,,0.00,WUHU216DAVISVP2,2013-08-23 15:25:00,
2013-08-23 10:30:00,76.4,70.2,30.07,SE,130,2.0,7.0,81,0.00,,,0.00,WUHU216DAVISVP2,2013-08-23 15:30:00,
2013-08-23 10:35:00,76.7,70.2,30.07,ENE,63,4.0,7.0,80,0.00,,,0.00,WUHU216DAVISVP2,2013-08-23 15:35:00,
2013-08-23 10:40:00,77.0,70.5,30.07,East,87,3.0,7.0,80,0.00,,,0.00,WUHU216DAVISVP2,2013-08-23 15:40:00,
2013-08-23 10:45:00,77.3,70.4,30.07,ENE,57,4.0,7.0,79,0.00,,,0.00,WUHU216DAVISVP2,2013-08-23 15:45:00,
2013-08-23 10:50:00,77.3,70.4,30.07,SE,134,2.0,7.0,79,0.00,,,0.00,WUHU216DAVISVP2,2013-08-23 15:50:00,
2013-08-23 10:55:00,77.7,70.8,30.07,East,91,3.0,8.0,79,0.00,,,0.00,WUHU216DAVISVP2,2013-08-23 15:55:00,
2013-08-23 11:00:00,78.5,71.6,30.07,ESE,121,2.0,8.0,79,0.00,,,0.00,WUHU216DAVISVP2,2013-08-23 16:00:00,
2013-08-23 11:05:00,78.8,71.5,30.06,NE,54,4.0,8.0,78,0.00,,,0.00,WUHU216DAVISVP2,2013-08-23 16:05:00,
2013-08-23 11:10:00,79.1,71.8,30.06,East,101,4.0,8.0,78,0.00,,,0.00,WUHU216DAVISVP2,2013-08-23 16:10:00,
2013-08-23 11:15:00,79.3,71.6,30.06,ESE,115,4.0,10.0,77,0.00,,,0.00,WUHU216DAVISVP2,2013-08-23 16:15:00,
2013-08-23 11:20:00,79.4,72.1,30.06,SE,125,1.0,10.0,78,0.00,,,0.00,WUHU216DAVISVP2,2013-08-23 16:20:00,
2013-08-23 11:25:00,79.7,72.0,30.06,ESE,121,2.0,10.0,77,0.00,,,0.00,WUHU216DAVISVP2,2013-08-23 16:25:00,
2013-08-23 11:30:00,80.0,72.3,30.06,SE,124,3.0,10.0,77,0.00,,,0.00,WUHU216DAVISVP2,2013-08-23 16:30:00,
2013-08-23 11:35:00,80.1,72.4,30.05,SE,124,2.0,10.0,77,0.00,,,0.00,WUHU216DAVISVP2,2013-08-23 16:35:00,
2013-08-23 11:40:00,80.1,72.0,30.05,ESE,115,4.0,10.0,76,0.00,,,0.00,WUHU216DAVISVP2,2013-08-23 16:40:00,
2013-08-23 11:45:00,80.2,72.5,30.05,East,100,2.0,9.0,77,0.00,,,0.00,WUHU216DAVISVP2,2013-08-23 16:45:00,
2013-08-23 11:50:00,80.7,72.6,30.05,SE,124,2.0,9.0,76,0.00,,,0.00,WUHU216DAVISVP2,2013-08-23 16:50:00,
2013-08-23 11:55:00,80.9,72.4,30.05,ESE,109,3.0,7.0,75,0.00,,,0.00,WUHU216DAVISVP2,2013-08-23 16:55:00,
2013-08-23 12:00:00,81.1,72.6,30.05,ESE,105,3.0,8.0,75,0.00,,,0.00,WUHU216DAVISVP2,2013-08-23 17:00:00,
2013-08-23 12:05:00,81.6,73.1,30.04,ENE,65,3.0,8.0,75,0.00,,,0.00,WUHU216DAVISVP2,2013-08-23 17:05:00,
2013-08-23 12:10:00,81.8,72.9,30.04,SE,146,3.0,8.0,74,0.00,,,0.00,WUHU216DAVISVP2,2013-08-23 17:10:00,
2013-08-23 12:15:00,81.9,73.0,30.04,ESE,103,2.0,8.0,74,0.00,,,0.00,WUHU216DAVISVP2,2013-08-23 17:15:00,
2013-08-23 12:20:00,82.0,72.7,30.04,ESE,103,3.0,7.0,73,0.00,,,0.00,WUHU216DAVISVP2,2013-08-23 17:20:00,
2013-08-23 12:25:00,81.8,73.3,30.04,East,100,2.0,7.0,75,0.00,,,0.00,WUHU216DAVISVP2,2013-08-23 17:25:00,
2013-08-23 12:30:00,82.0,73.5,30.04,ESE,108,3.0,8.0,75,0.00,,,0.00,WUHU216DAVISVP2,2013-08-23 17:30:00,
2013-08-23 12:35:00,82.2,73.7,30.03,ESE,105,3.0,9.0,75,0.00,,,0.00,WUHU216DAVISVP2,2013-08-23 17:35:00,
2013-08-23 12:40:00,82.6,73.5,30.04,East,83,2.0,9.0,74,0.00,,,0.00,WUHU216DAVISVP2,2013-08-23 17:40:00,
2013-08-23 12:45:00,82.9,74.0,30.04,East,92,2.0,9.0,74,0.00,,,0.00,WUHU216DAVISVP2,2013-08-23 17:45:00,
2013-08-23 12:50:00,83.1,74.2,30.03,ESE,113,2.0,7.0,74,0.00,,,0.00,WUHU216DAVISVP2,2013-08-23 17:50:00,
2013-08-23 12:55:00,83.1,74.2,30.03,ESE,109,3.0,7.0,74,0.00,,,0.00,WUHU216DAVISVP2,2013-08-23 17:55:00,
2013-08-23 13:00:00,83.4,74.0,30.03,SSE,158,2.0,7.0,73,0.00,,,0.00,WUHU216DAVISVP2,2013-08-23 18:00:00,
2013-08-23 13:05:00,83.5,74.5,30.03,ESE,109,3.0,10.0,74,0.00,,,0.00,WUHU216DAVISVP2,2013-08-23 18:05:00,
2013-08-23 13:10:00,83.7,73.9,30.03,SSE,154,2.0,10.0,72,0.00,,,0.00,WUHU216DAVISVP2,2013-08-23 18:10:00,
2013-08-23 13:15:00,83.7,73.7,30.03,East,99,3.0,10.0,72,0.00,,,0.00,WUHU216DAVISVP2,2013-08-23 18:15:00,
2013-08-23 13:20:00,83.9,74.3,30.02,SE,129,2.0,9.0,73,0.00,,,0.00,WUHU216DAVISVP2,2013-08-23 18:20:00,
2013-08-23 13:25:00,84.3,74.9,30.02,East,95,2.0,8.0,73,0.00,,,0.00,WUHU216DAVISVP2,2013-08-23 18:25:00,
2013-08-23 13:30:00,84.8,75.0,30.02,SE,143,2.0,8.0,72,0.00,,,0.00,WUHU216DAVISVP2,2013-08-23 18:30:00,
2013-08-23 13:35:00,84.8,74.6,30.02,ESE,107,3.0,7.0,71,0.00,,,0.00,WUHU216DAVISVP2,2013-08-23 18:35:00,
2013-08-23 13:40:00,84.9,75.1,30.01,SSE,148,1.0,7.0,72,0.00,,,0.00,WUHU216DAVISVP2,2013-08-23 18:40:00,
2013-08-23 13:45:00,85.2,75.0,30.01,ESE,117,3.0,7.0,71,0.00,,,0.00,WUHU216DAVISVP2,2013-08-23 18:45:00,
2013-08-23 13:50:00,85.4,75.6,30.01,SE,137,1.0,7.0,72,0.00,,,0.00,WUHU216DAVISVP2,2013-08-23 18:50:00,
2013-08-23 13:55:00,85.5,74.8,30.01,SE,139,2.0,7.0,70,0.00,,,0.00,WUHU216DAVISVP2,2013-08-23 18:55:00,
2013-08-23 14:00:00,85.5,75.0,30.01,ESE,103,2.0,10.0,71,0.00,,,0.00,WUHU216DAVISVP2,2013-08-23 19:00:00,
2013-08-23 14:05:00,85.6,75.4,30.01,ESE,106,2.0,10.0,71,0.00,,,0.00,WUHU216DAVISVP2,2013-08-23 19:05:00,
2013-08-23 14:10:00,85.7,74.6,30.01,ESE,117,2.0,10.0,69,0.00,,,0.00,WUHU216DAVISVP2,2013-08-23 19:10:00,
2013-08-23 14:15:00,85.7,75.0,30.01,SE,131,2.0,10.0,70,0.00,,,0.00,WUHU216DAVISVP2,2013-08-23 19:15:00,
2013-08-23 14:20:00,85.9,75.0,30.01,SSE,150,3.0,7.0,70,0.00,,,0.00,WUHU216DAVISVP2,2013-08-23 19:20:00,
2013-08-23 14:25:00,86.0,75.7,30.01,ESE,106,2.0,7.0,71,0.00,,,0.00,WUHU216DAVISVP2,2013-08-23 19:25:00,
2013-08-23 14:30:00,85.9,75.2,30.00,ESE,105,4.0,8.0,70,0.00,,,0.00,WUHU216DAVISVP2,2013-08-23 19:30:00,
2013-08-23 14:35:00,86.0,75.3,30.00,ESE,103,4.0,8.0,70,0.00,,,0.00,WUHU216DAVISVP2,2013-08-23 19:35:00,
2013-08-23 14:40:00,86.2,74.7,30.00,ESE,107,2.0,8.0,68,0.00,,,0.00,WUHU216DAVISVP2,2013-08-23 19:40:00,
2013-08-23 14:45:00,86.5,75.8,30.00,ENE,78,8.0,8.0,70,0.00,,,0.00,WUHU216DAVISVP2,2013-08-23 19:45:00,
2013-08-23 14:50:00,86.6,73.9,30.00,South,171,2.0,8.0,66,0.00,,,0.00,WUHU216DAVISVP2,2013-08-23 19:50:00,
2013-08-23 14:55:00,86.4,74.4,30.00,SE,125,4.0,9.0,67,0.00,,,0.00,WUHU216DAVISVP2,2013-08-23 19:55:00,
2013-08-23 15:00:00,86.4,74.4,30.00,SSE,163,3.0,10.0,67,0.00,,,0.00,WUHU216DAVISVP2,2013-08-23 20:00:00,
2013-08-23 15:05:00,86.6,74.6,29.99,ESE,113,3.0,10.0,67,0.00,,,0.00,WUHU216DAVISVP2,2013-08-23 20:05:00,
2013-08-23 15:10:00,86.5,74.1,29.99,SE,146,2.0,10.0,66,0.00,,,0.00,WUHU216DAVISVP2,2013-08-23 20:10:00,
2013-08-23 15:15:00,86.2,74.7,29.99,SE,128,2.0,10.0,68,0.00,,,0.00,WUHU216DAVISVP2,2013-08-23 20:15:00,
2013-08-23 15:20:00,86.1,73.9,29.99,SSE,162,3.0,10.0,67,0.00,,,0.00,WUHU216DAVISVP2,2013-08-23 20:20:00,
2013-08-23 15:25:00,85.8,74.3,29.99,ESE,106,2.0,8.0,68,0.00,,,0.00,WUHU216DAVISVP2,2013-08-23 20:25:00,
2013-08-23 15:30:00,85.7,74.2,29.99,East,95,2.0,8.0,68,0.00,,,0.00,WUHU216DAVISVP2,2013-08-23 20:30:00,
2013-08-23 15:35:00,85.8,74.3,29.99,SSE,168,0.0,8.0,68,0.00,,,0.00,WUHU216DAVISVP2,2013-08-23 20:35:00,
2013-08-23 15:40:00,85.8,74.3,29.99,East,88,4.0,8.0,68,0.00,,,0.00,WUHU216DAVISVP2,2013-08-23 20:40:00,
2013-08-23 15:45:00,85.7,74.2,29.99,SSE,159,2.0,8.0,68,0.00,,,0.00,WUHU216DAVISVP2,2013-08-23 20:45:00,
2013-08-23 15:50:00,85.4,74.1,29.99,East,89,2.0,8.0,69,0.00,,,0.00,WUHU216DAVISVP2,2013-08-23 20:50:00,
2013-08-23 15:55:00,85.4,74.1,29.99,SE,141,1.0,8.0,69,0.00,,,0.00,WUHU216DAVISVP2,2013-08-23 20:55:00,
2013-08-23 16:00:00,85.3,74.7,29.99,ESE,112,2.0,8.0,70,0.00,,,0.00,WUHU216DAVISVP2,2013-08-23 21:00:00,
2013-08-23 16:05:00,85.4,73.9,29.99,SSW,211,3.0,8.0,68,0.00,,,0.00,WUHU216DAVISVP2,2013-08-23 21:05:00,
2013-08-23 16:10:00,85.7,74.2,29.99,ESE,118,2.0,8.0,68,0.00,,,0.00,WUHU216DAVISVP2,2013-08-23 21:10:00,
2013-08-23 16:15:00,86.2,74.2,29.99,SSE,157,2.0,8.0,67,0.00,,,0.00,WUHU216DAVISVP2,2013-08-23 21:15:00,
2013-08-23 16:20:00,86.4,74.4,29.99,ESE,109,3.0,8.0,67,0.00,,,0.00,WUHU216DAVISVP2,2013-08-23 21:20:00,
2013-08-23 16:24:00,86.5,73.6,29.99,South,183,4.0,8.0,65,0.00,,,0.00,WUHU216DAVISVP2,2013-08-23 21:24:00,
2013-08-23 16:29:00,86.3,73.0,29.99,SSE,150,2.0,8.0,64,0.00,,,0.00,WUHU216DAVISVP2,2013-08-23 21:29:00,
2013-08-23 16:34:00,86.8,73.4,29.99,SE,143,1.0,8.0,64,0.00,,,0.00,WUHU216DAVISVP2,2013-08-23 21:34:00,
2013-08-23 16:39:00,87.2,72.9,29.99,SE,139,3.0,8.0,62,0.00,,,0.00,WUHU216DAVISVP2,2013-08-23 21:39:00,
2013-08-23 16:44:00,87.3,72.7,29.99,NE,51,3.0,8.0,62,0.00,,,0.00,WUHU216DAVISVP2,2013-08-23 21:44:00,
2013-08-23 16:49:00,87.3,73.2,29.99,SSE,156,3.0,8.0,63,0.00,,,0.00,WUHU216DAVISVP2,2013-08-23 21:49:00,
2013-08-23 16:54:00,86.9,72.6,29.99,South,169,2.0,7.0,62,0.00,,,0.00,WUHU216DAVISVP2,2013-08-23 21:54:00,
2013-08-23 16:59:00,86.6,72.3,29.98,SSE,160,1.0,7.0,62,0.00,,,0.00,WUHU216DAVISVP2,2013-08-23 21:59:00,
2013-08-23 17:04:00,86.5,72.7,29.98,SSE,164,4.0,7.0,63,0.00,,,0.00,WUHU216DAVISVP2,2013-08-23 22:04:00,
2013-08-23 17:09:00,86.3,72.5,29.98,SE,146,3.0,7.0,63,0.00,,,0.00,WUHU216DAVISVP2,2013-08-23 22:09:00,
2013-08-23 17:14:00,86.3,73.4,29.98,East,90,2.0,5.0,65,0.00,,,0.00,WUHU216DAVISVP2,2013-08-23 22:14:00,
2013-08-23 17:19:00,86.6,73.7,29.98,SE,143,3.0,5.0,65,0.00,,,0.00,WUHU216DAVISVP2,2013-08-23 22:19:00,
2013-08-23 17:24:00,86.6,72.8,29.98,SSE,147,2.0,7.0,63,0.00,,,0.00,WUHU216DAVISVP2,2013-08-23 22:24:00,
2013-08-23 17:29:00,86.0,72.7,29.98,ESE,103,3.0,9.0,64,0.00,,,0.00,WUHU216DAVISVP2,2013-08-23 22:29:00,
2013-08-23 17:34:00,85.6,72.8,29.98,ESE,122,2.0,9.0,65,0.00,,,0.00,WUHU216DAVISVP2,2013-08-23 22:34:00,
2013-08-23 17:39:00,85.5,72.7,29.98,SE,142,3.0,9.0,65,0.00,,,0.00,WUHU216DAVISVP2,2013-08-23 22:39:00,
2013-08-23 17:44:00,85.6,72.8,29.98,SSE,162,2.0,9.0,65,0.00,,,0.00,WUHU216DAVISVP2,2013-08-23 22:44:00,
2013-08-23 17:49:00,85.7,72.9,29.98,ESE,112,2.0,7.0,65,0.00,,,0.00,WUHU216DAVISVP2,2013-08-23 22:49:00,
2013-08-23 17:54:00,85.8,73.4,29.98,SSE,158,1.0,5.0,66,0.00,,,0.00,WUHU216DAVISVP2,2013-08-23 22:54:00,
2013-08-23 17:59:00,85.9,72.6,29.98,SSE,150,2.0,5.0,64,0.00,,,0.00,WUHU216DAVISVP2,2013-08-23 22:59:00,
2013-08-23 18:04:00,85.8,73.0,29.98,SE,142,3.0,5.0,65,0.00,,,0.00,WUHU216DAVISVP2,2013-08-23 23:04:00,
2013-08-23 18:09:00,85.6,72.9,29.98,SSE,155,1.0,4.0,66,0.00,,,0.00,WUHU216DAVISVP2,2013-08-23 23:09:00,
2013-08-23 18:14:00,85.2,72.1,29.98,South,187,3.0,4.0,65,0.00,,,0.00,WUHU216DAVISVP2,2013-08-23 23:14:00,
2013-08-23 18:19:00,85.0,72.4,29.98,South,169,1.0,4.0,66,0.00,,,0.00,WUHU216DAVISVP2,2013-08-23 23:19:00,
2013-08-23 18:24:00,84.6,72.4,29.97,SE,143,1.0,4.0,67,0.00,,,0.00,WUHU216DAVISVP2,2013-08-23 23:24:00,
2013-08-23 18:29:00,84.3,72.8,29.97,East,79,3.0,4.0,68,0.00,,,0.00,WUHU216DAVISVP2,2013-08-23 23:29:00,
2013-08-23 18:34:00,84.1,72.7,29.97,SSE,152,1.0,4.0,68,0.00,,,0.00,WUHU216DAVISVP2,2013-08-23 23:34:00,
2013-08-23 18:39:00,84.0,72.6,29.97,SE,142,1.0,5.0,68,0.00,,,0.00,WUHU216DAVISVP2,2013-08-23 23:39:00,
2013-08-23 18:44:00,83.8,72.4,29.97,East,96,3.0,8.0,68,0.00,,,0.00,WUHU216DAVISVP2,2013-08-23 23:44:00,
2013-08-23 18:49:00,83.5,72.1,29.97,SE,125,2.0,8.0,68,0.00,,,0.00,WUHU216DAVISVP2,2013-08-23 23:49:00,
2013-08-23 18:54:00,83.3,71.9,29.97,East,89,2.0,8.0,68,0.00,,,0.00,WUHU216DAVISVP2,2013-08-23 23:54:00,
2013-08-23 18:59:00,83.0,72.0,29.97,SE,139,2.0,8.0,69,0.00,,,0.00,WUHU216DAVISVP2,2013-08-23 23:59:00,
2013-08-23 19:04:00,82.8,71.8,29.97,NE,56,3.0,5.0,69,0.00,,,0.00,WUHU216DAVISVP2,2013-08-24 00:04:00,
2013-08-23 19:09:00,82.5,71.7,29.97,East,93,1.0,5.0,70,0.00,,,0.00,WUHU216DAVISVP2,2013-08-24 00:09:00,
2013-08-23 19:14:00,82.2,71.9,29.97,ESE,106,1.0,4.0,71,0.00,,,0.00,WUHU216DAVISVP2,2013-08-24 00:14:00,
2013-08-23 19:19:00,82.0,72.3,29.97,SE,136,1.0,4.0,72,0.00,,,0.00,WUHU216DAVISVP2,2013-08-24 00:19:00,
2013-08-23 19:24:00,81.7,72.4,29.97,SE,130,1.0,3.0,73,0.00,,,0.00,WUHU216DAVISVP2,2013-08-24 00:24:00,
2013-08-23 19:29:00,81.5,72.4,29.97,ESE,118,1.0,4.0,74,0.00,,,0.00,WUHU216DAVISVP2,2013-08-24 00:29:00,
2013-08-23 19:34:00,81.2,72.1,29.97,SE,134,1.0,4.0,74,0.00,,,0.00,WUHU216DAVISVP2,2013-08-24 00:34:00,
2013-08-23 19:39:00,81.0,72.3,29.96,East,86,2.0,4.0,75,0.00,,,0.00,WUHU216DAVISVP2,2013-08-24 00:39:00,
2013-08-23 19:44:00,80.8,72.7,29.96,SE,138,1.0,4.0,76,0.00,,,0.00,WUHU216DAVISVP2,2013-08-24 00:44:00,
2013-08-23 19:49:00,80.6,72.5,29.96,East,89,2.0,4.0,76,0.00,,,0.00,WUHU216DAVISVP2,2013-08-24 00:49:00,
2013-08-23 19:54:00,80.4,72.3,29.96,ESE,119,1.0,4.0,76,0.00,,,0.00,WUHU216DAVISVP2,2013-08-24 00:54:00,
2013-08-23 19:59:00,80.2,72.1,29.96,ESE,103,1.0,4.0,76,0.00,,,0.00,WUHU216DAVISVP2,2013-08-24 00:59:00,
2013-08-23 20:04:00,79.9,72.2,29.96,SE,134,1.0,4.0,77,0.00,,,0.00,WUHU216DAVISVP2,2013-08-24 01:04:00,
2013-08-23 20:09:00,79.7,72.0,29.96,ESE,115,1.0,3.0,77,0.00,,,0.00,WUHU216DAVISVP2,2013-08-24 01:09:00,
2013-08-23 20:14:00,79.5,71.8,29.96,ESE,116,1.0,4.0,77,0.00,,,0.00,WUHU216DAVISVP2,2013-08-24 01:14:00,
2013-08-23 20:19:00,79.2,71.5,29.96,SE,137,1.0,4.0,77,0.00,,,0.00,WUHU216DAVISVP2,2013-08-24 01:19:00,
2013-08-23 20:24:00,79.0,71.3,29.96,ESE,111,1.0,4.0,77,0.00,,,0.00,WUHU216DAVISVP2,2013-08-24 01:24:00,
2013-08-23 20:29:00,78.9,71.2,29.96,SE,137,0.0,4.0,77,0.00,,,0.00,WUHU216DAVISVP2,2013-08-24 01:29:00,
2013-08-23 20:34:00,78.7,71.4,29.96,ESE,102,0.0,4.0,78,0.00,,,0.00,WUHU216DAVISVP2,2013-08-24 01:34:00,
2013-08-23 20:39:00,78.6,71.3,29.96,East,99,2.0,5.0,78,0.00,,,0.00,WUHU216DAVISVP2,2013-08-24 01:39:00,
2013-08-23 20:44:00,78.5,71.2,29.96,ESE,120,2.0,5.0,78,0.00,,,0.00,WUHU216DAVISVP2,2013-08-24 01:44:00,
2013-08-23 20:49:00,78.3,71.0,29.97,ESE,109,2.0,7.0,78,0.00,,,0.00,WUHU216DAVISVP2,2013-08-24 01:49:00,
2013-08-23 20:54:00,78.1,70.8,29.97,ESE,111,1.0,7.0,78,0.00,,,0.00,WUHU216DAVISVP2,2013-08-24 01:54:00,
2013-08-23 20:59:00,78.0,70.7,29.97,SE,125,0.0,7.0,78,0.00,,,0.00,WUHU216DAVISVP2,2013-08-24 01:59:00,
2013-08-23 21:04:00,77.7,70.8,29.97,SE,127,1.0,7.0,79,0.00,,,0.00,WUHU216DAVISVP2,2013-08-24 02:04:00,
2013-08-23 21:09:00,77.5,70.6,29.97,SE,134,1.0,3.0,79,0.00,,,0.00,WUHU216DAVISVP2,2013-08-24 02:09:00,
2013-08-23 21:14:00,77.4,70.5,29.98,SE,127,1.0,3.0,79,0.00,,,0.00,WUHU216DAVISVP2,2013-08-24 02:14:00,
2013-08-23 21:19:00,77.2,70.7,29.98,SE,140,1.0,3.0,80,0.00,,,0.00,WUHU216DAVISVP2,2013-08-24 02:19:00,
2013-08-23 21:24:00,77.0,70.5,29.98,SE,126,3.0,3.0,80,0.00,,,0.00,WUHU216DAVISVP2,2013-08-24 02:24:00,
2013-08-23 21:29:00,76.8,70.6,29.98,ESE,113,2.0,5.0,81,0.00,,,0.00,WUHU216DAVISVP2,2013-08-24 02:29:00,
2013-08-23 21:34:00,76.7,70.5,29.98,SE,134,1.0,5.0,81,0.00,,,0.00,WUHU216DAVISVP2,2013-08-24 02:34:00,
2013-08-23 21:39:00,76.6,70.4,29.98,ESE,120,1.0,5.0,81,0.00,,,0.00,WUHU216DAVISVP2,2013-08-24 02:39:00,
2013-08-23 21:44:00,76.4,70.2,29.99,SE,146,1.0,5.0,81,0.00,,,0.00,WUHU216DAVISVP2,2013-08-24 02:44:00,
2013-08-23 21:49:00,76.3,70.1,29.99,ESE,108,1.0,4.0,81,0.00,,,0.00,WUHU216DAVISVP2,2013-08-24 02:49:00,
2013-08-23 21:54:00,76.2,70.4,29.99,SE,134,1.0,4.0,82,0.00,,,0.00,WUHU216DAVISVP2,2013-08-24 02:54:00,
2013-08-23 21:59:00,76.0,70.2,29.99,ESE,113,1.0,3.0,82,0.00,,,0.00,WUHU216DAVISVP2,2013-08-24 02:59:00,
2013-08-23 22:04:00,75.9,70.0,29.99,SE,130,2.0,5.0,82,0.00,,,0.00,WUHU216DAVISVP2,2013-08-24 03:04:00,
2013-08-23 22:09:00,75.8,70.0,29.99,ESE,120,1.0,8.0,82,0.00,,,0.00,WUHU216DAVISVP2,2013-08-24 03:09:00,
2013-08-23 22:14:00,75.7,69.9,29.98,SE,125,2.0,8.0,82,0.00,,,0.00,WUHU216DAVISVP2,2013-08-24 03:14:00,
2013-08-23 22:19:00,75.6,69.8,29.98,ESE,119,2.0,8.0,82,0.00,,,0.00,WUHU216DAVISVP2,2013-08-24 03:19:00,
2013-08-23 22:24:00,75.5,69.7,29.99,ESE,120,1.0,8.0,82,0.00,,,0.00,WUHU216DAVISVP2,2013-08-24 03:24:00,
2013-08-23 22:29:00,75.4,69.6,29.99,ESE,103,3.0,5.0,82,0.00,,,0.00,WUHU216DAVISVP2,2013-08-24 03:29:00,
2013-08-23 22:34:00,75.3,69.4,29.98,ESE,121,2.0,5.0,82,0.00,,,0.00,WUHU216DAVISVP2,2013-08-24 03:34:00,
2013-08-23 22:39:00,75.2,69.3,29.98,ESE,104,3.0,7.0,82,0.00,,,0.00,WUHU216DAVISVP2,2013-08-24 03:39:00,
2013-08-23 22:44:00,75.0,69.5,29.98,SE,124,2.0,7.0,83,0.00,,,0.00,WUHU216DAVISVP2,2013-08-24 03:44:00,
2013-08-23 22:49:00,74.8,69.4,29.98,SE,125,2.0,7.0,83,0.00,,,0.00,WUHU216DAVISVP2,2013-08-24 03:49:00,
2013-08-23 22:54:00,74.7,69.3,29.98,SE,136,1.0,7.0,83,0.00,,,0.00,WUHU216DAVISVP2,2013-08-24 03:54:00,
2013-08-23 22:59:00,74.6,69.5,29.98,SE,146,1.0,5.0,84,0.00,,,0.00,WUHU216DAVISVP2,2013-08-24 03:59:00,
2013-08-23 23:01:00,74.5,69.4,29.98,SE,137,1.0,5.0,84,0.00,,,0.00,WUHU216DAVISVP2,2013-08-24 04:01:00,
2013-08-23 23:06:00,74.4,69.3,29.98,East,81,1.0,3.0,84,0.00,,,0.00,WUHU216DAVISVP2,2013-08-24 04:06:00,
2013-08-23 23:11:00,74.2,69.1,29.98,NE,52,1.0,1.0,84,0.00,,,0.00,WUHU216DAVISVP2,2013-08-24 04:11:00,
2013-08-23 23:16:00,74.1,69.0,29.98,SE,128,0.0,1.0,84,0.00,,,0.00,WUHU216DAVISVP2,2013-08-24 04:16:00,
2013-08-23 23:21:00,74.1,69.0,29.98,SE,139,0.0,1.0,84,0.00,,,0.00,WUHU216DAVISVP2,2013-08-24 04:21:00,
2013-08-23 23:26:00,74.0,68.9,29.98,SE,130,0.0,1.0,84,0.00,,,0.00,WUHU216DAVISVP2,2013-08-24 04:26:00,
2013-08-23 23:31:00,74.0,68.9,29.99,SSE,148,0.0,0.0,84,0.00,,,0.00,WUHU216DAVISVP2,2013-08-24 04:31:00,
2013-08-23 23:36:00,74.0,69.2,29.98,SE,134,0.0,0.0,85,0.00,,,0.00,WUHU216DAVISVP2,2013-08-24 04:36:00,
2013-08-23 23:41:00,74.0,69.2,29.99,SE,141,0.0,1.0,85,0.00,,,0.00,WUHU216DAVISVP2,2013-08-24 04:41:00,
2013-08-23 23:46:00,74.0,69.2,29.99,SE,144,0.0,1.0,85,0.00,,,0.00,WUHU216DAVISVP2,2013-08-24 04:46:00,
2013-08-23 23:51:00,73.9,69.1,29.99,SE,129,0.0,1.0,85,0.00,,,0.00,WUHU216DAVISVP2,2013-08-24 04:51:00,
2013-08-23 23:56:00,73.9,69.1,29.99,SE,138,0.0,1.0,85,0.00,,,0.00,WUHU216DAVISVP2,2013-08-24 04:56:00,